Iowa Falls, IA

6:24 AM CDT on March 30, 2017 (GMT -0500)
Iowa Falls Municipal

Weather History for KIFA - February, 2013

Change the Weather History Date:

Saturday, February 2, 2013

  Actual Average Record
Temperature  
Mean Temperature 18 °F -  
Max Temperature 29 °F 27 °F 55 °F (1987)
Min Temperature 9 °F 8 °F -20 °F (1949)
Degree Days  
Heating Degree Days 48    
Moisture  
Dew Point 11 °F    
Average Humidity 78    
Maximum Humidity 91    
Minimum Humidity 63    
Precipitation  
Precipitation 0.00 in - - ()
Sea Level Pressure  
Sea Level Pressure 30.06 in    
Wind  
Wind Speed 12 mph (West)    
Max Wind Speed 22 mph    
Max Gust Speed 26 mph    
Visibility 9 miles    
Events Snow    
Averages and records for this station are not official NWS values.
T = Trace of Precipitation, MM = Missing Value Source: NWS Daily Summary

Daily Weather History Graph

Daily Weather History Graph

Search for Another Location

Airport or City:

Trip Planner

Search our weather history database for the weather conditions in past years. The results will help you decide how hot, cold, wet, or windy it might be!

Date:

Astronomy

Feb. 02, 2013 Rise Set
Actual Time 7:25 AM CST 5:28 PM CST
Civil Twilight 6:55 AM CST 5:58 PM CST
Nautical Twilight 6:22 AM CST 6:32 PM CST
Astronomical Twilight 5:49 AM CST 7:04 PM CST
Moon No Moon Rise 10:26 AM CST (2/2)
Length of Visible Light 11h 02m
Length of Day
10h 03m
Waning Gibbous, 59% of the Moon is Illuminated
Feb 2
Waning Gibbous
Feb 3
Last Quarter
Feb 10
New
Feb 17
First Quarter
Feb 25
Full

Hourly Weather History & Observations

Time (CST) Temp. Windchill Dew Point Humidity Pressure Visibility Wind Dir Wind Speed Gust Speed Precip Events Conditions
12:15 AM 19.9 °F 8.6 °F 14.7 °F 80% 29.99 in 10.0 mi SSW 10.4 mph - N/A   Overcast
12:35 AM 20.7 °F 8.8 °F 15.4 °F 80% 29.98 in 10.0 mi SW 11.5 mph - N/A   Overcast
12:55 AM 21.6 °F 10.6 °F 16.5 °F 81% 29.97 in 10.0 mi SW 10.4 mph - N/A   Overcast
1:15 AM 23.0 °F 10.6 °F 16.9 °F 77% 29.97 in 10.0 mi SW 13.8 mph - N/A   Overcast
1:55 AM 21.7 °F 10.2 °F 16.5 °F 80% 29.97 in 10.0 mi WSW 11.5 mph - N/A   Scattered Clouds
2:15 AM 21.2 °F 9.5 °F 16.5 °F 82% 29.99 in 10.0 mi West 11.5 mph - N/A   Clear
2:35 AM 20.7 °F 7.1 °F 16.3 °F 83% 29.99 in 10.0 mi WNW 15.0 mph - N/A   Scattered Clouds
2:55 AM 21.2 °F 7.3 °F 16.2 °F 81% 29.99 in 10.0 mi NW 16.1 mph 21.9 mph N/A   Scattered Clouds
3:15 AM 19.8 °F 5.9 °F 14.7 °F 81% 30.00 in 10.0 mi NW 15.0 mph - N/A   Scattered Clouds
3:35 AM 19.4 °F 5.5 °F 14.7 °F 82% 30.01 in 10.0 mi NW 15.0 mph - N/A   Mostly Cloudy
3:55 AM 19.4 °F 3.2 °F 13.8 °F 79% 30.01 in 10.0 mi NW 20.7 mph - N/A   Overcast
4:15 AM 18.1 °F 1.2 °F 12.2 °F 78% 30.01 in 10.0 mi NW 21.9 mph 25.3 mph N/A   Overcast
4:35 AM 17.6 °F 2.2 °F 11.3 °F 76% 30.02 in 10.0 mi NNW 17.3 mph 24.2 mph N/A   Overcast
4:55 AM 17.2 °F 3.3 °F 11.8 °F 79% 30.03 in 10.0 mi NNW 13.8 mph - N/A Snow Light Snow
5:15 AM 17.1 °F 2.0 °F 11.7 °F 79% 30.05 in 5.0 mi NNW 16.1 mph - N/A Snow Light Snow
5:35 AM 16.7 °F 3.8 °F 12.0 °F 82% 30.06 in 5.0 mi NW 11.5 mph - N/A Snow Light Snow
6:15 AM 14.5 °F -1.3 °F 9.1 °F 79% 30.08 in 10.0 mi NW 16.1 mph - N/A   Overcast
6:35 AM 13.5 °F -0.9 °F 8.4 °F 80% 30.08 in 10.0 mi NW 12.7 mph - N/A   Mostly Cloudy
6:55 AM 12.6 °F -3.8 °F 7.3 °F 80% 30.09 in 10.0 mi NW 16.1 mph - N/A   Clear
7:15 AM 11.8 °F -5.3 °F 6.6 °F 80% 30.10 in 10.0 mi NW 17.3 mph - N/A   Clear
7:35 AM 10.9 °F -4.1 °F 5.4 °F 78% 30.11 in 10.0 mi NW 12.7 mph - N/A   Clear
7:55 AM 10.0 °F -5.2 °F 4.6 °F 79% 30.12 in 10.0 mi NW 12.7 mph - N/A   Clear
8:15 AM 9.3 °F -6.1 °F 4.1 °F 79% 30.13 in 10.0 mi NW 12.7 mph - N/A   Clear
8:35 AM 9.5 °F -6.6 °F 4.1 °F 79% 30.14 in 10.0 mi NW 13.8 mph - N/A   Clear
8:55 AM 9.5 °F -7.8 °F 4.1 °F 79% 30.14 in 10.0 mi NW 16.1 mph - N/A   Clear
9:15 AM 9.5 °F -6.6 °F 3.7 °F 77% 30.13 in 10.0 mi NW 13.8 mph - N/A   Clear
9:35 AM 9.5 °F -7.2 °F 3.2 °F 76% 30.15 in 10.0 mi NW 15.0 mph - N/A   Clear
9:55 AM 9.9 °F -6.1 °F 3.4 °F 75% 30.14 in 10.0 mi NW 13.8 mph - N/A   Clear
10:15 AM 10.4 °F -6.0 °F 3.7 °F 74% 30.15 in 10.0 mi NW 15.0 mph - N/A   Clear
10:35 AM 10.8 °F -4.3 °F 4.1 °F 75% 30.15 in 10.0 mi NW 12.7 mph - N/A   Clear
10:55 AM 11.5 °F -2.7 °F 4.5 °F 73% 30.15 in 10.0 mi NW 11.5 mph - N/A   Clear
11:15 AM 12.6 °F -2.0 °F 5.2 °F 72% 30.16 in 10.0 mi NW 12.7 mph - N/A   Clear
11:35 AM 13.1 °F -1.4 °F 4.8 °F 70% 30.15 in 10.0 mi NW 12.7 mph - N/A   Clear
11:55 AM 13.6 °F 0.7 °F 5.4 °F 70% 30.14 in 10.0 mi NW 10.4 mph - N/A   Clear
12:15 PM 14.0 °F 1.2 °F 5.7 °F 70% 30.13 in 10.0 mi NW 10.4 mph - N/A   Clear
12:35 PM 13.8 °F 1.8 °F 5.7 °F 70% 30.13 in 10.0 mi NW 9.2 mph - N/A   Clear
12:55 PM 15.3 °F 2.8 °F 6.8 °F 69% 30.13 in 10.0 mi WNW 10.4 mph - N/A   Scattered Clouds
1:15 PM 15.4 °F 3.8 °F 6.6 °F 68% 30.13 in 10.0 mi WNW 9.2 mph - N/A   Mostly Cloudy
1:35 PM 15.8 °F 3.4 °F 6.6 °F 67% 30.13 in 10.0 mi WNW 10.4 mph - N/A   Scattered Clouds
1:55 PM 16.0 °F 4.4 °F 6.8 °F 67% 30.12 in 10.0 mi WNW 9.2 mph - N/A   Scattered Clouds
2:15 PM 16.3 °F 5.7 °F 6.8 °F 66% 30.11 in 10.0 mi NW 8.1 mph - N/A   Scattered Clouds
2:35 PM 16.5 °F 4.3 °F 6.8 °F 66% 30.11 in 10.0 mi NW 10.4 mph - N/A   Scattered Clouds
2:55 PM 17.2 °F 5.2 °F 7.3 °F 65% 30.11 in 10.0 mi WNW 10.4 mph - N/A   Mostly Cloudy
3:15 PM 16.9 °F 6.4 °F 6.3 °F 63% 30.11 in 10.0 mi WNW 8.1 mph - N/A   Overcast
3:35 PM 16.7 °F 7.2 °F 7.0 °F 66% 30.09 in 7.0 mi West 6.9 mph - N/A   Overcast
3:55 PM 17.4 °F 8.0 °F 8.4 °F 68% 30.09 in 10.0 mi West 6.9 mph - N/A   Mostly Cloudy
4:15 PM 16.7 °F 7.2 °F 8.1 °F 69% 30.09 in 10.0 mi West 6.9 mph - N/A   Scattered Clouds
4:35 PM 16.7 °F 8.3 °F 8.4 °F 70% 30.08 in 10.0 mi WSW 5.8 mph - N/A   Overcast
4:55 PM 16.7 °F 7.2 °F 8.8 °F 71% 30.07 in 10.0 mi WSW 6.9 mph - N/A   Overcast
5:15 PM 16.7 °F 7.2 °F 9.1 °F 72% 30.07 in 10.0 mi SW 6.9 mph - N/A   Overcast
5:35 PM 16.7 °F 8.3 °F 9.5 °F 73% 30.06 in 10.0 mi SW 5.8 mph - N/A   Overcast
5:55 PM 17.1 °F 10.0 °F 10.2 °F 75% 30.05 in 10.0 mi SW 4.6 mph - N/A   Overcast
6:15 PM 16.7 °F 7.2 °F 10.9 °F 78% 30.05 in 4.0 mi SW 6.9 mph - N/A Snow Light Snow
6:35 PM 16.5 °F 6.9 °F 12.2 °F 83% 30.04 in 3.0 mi South 6.9 mph - N/A Snow Light Snow
6:55 PM 16.5 °F 6.0 °F 12.9 °F 86% 30.03 in 3.0 mi South 8.1 mph - N/A Snow Light Snow
7:15 PM 16.5 °F 5.1 °F 13.1 °F 86% 30.02 in 5.0 mi South 9.2 mph - N/A Snow Light Snow
7:35 PM 16.7 °F 6.2 °F 13.1 °F 86% 30.02 in 10.0 mi South 8.1 mph - N/A Snow Light Snow
8:15 PM 17.1 °F 5.8 °F 13.6 °F 86% 30.01 in 7.0 mi South 9.2 mph - N/A Snow Light Snow
8:35 PM 17.2 °F 6.0 °F 14.0 °F 87% 30.00 in 7.0 mi South 9.2 mph - N/A   Overcast
8:55 PM 17.4 °F 6.2 °F 14.5 °F 88% 29.98 in 10.0 mi South 9.2 mph - N/A Snow Light Snow
9:15 PM 18.0 °F 6.9 °F 15.3 °F 89% 29.98 in 10.0 mi South 9.2 mph - N/A Snow Light Snow
9:35 PM 18.5 °F 9.3 °F 15.8 °F 89% 29.97 in 7.0 mi SSW 6.9 mph - N/A Snow Light Snow
9:55 PM 19.4 °F 8.6 °F 16.7 °F 89% 29.96 in 7.0 mi SSW 9.2 mph - N/A Snow Light Snow
10:15 PM 19.9 °F 8.6 °F 17.1 °F 89% 29.96 in 7.0 mi SSW 10.4 mph - N/A Snow Light Snow
10:35 PM 20.7 °F 10.2 °F 17.8 °F 89% 29.94 in 10.0 mi SSW 9.2 mph - N/A   Overcast
10:55 PM 22.1 °F 11.3 °F 19.6 °F 90% 29.94 in 10.0 mi WSW 10.4 mph - N/A   Overcast
11:15 PM 23.4 °F 12.2 °F 21.0 °F 91% 29.93 in 10.0 mi WSW 11.5 mph - N/A   Overcast
11:35 PM 26.2 °F 12.2 °F 23.4 °F 89% 29.94 in 10.0 mi West 20.7 mph 24.2 mph N/A   Overcast
11:55 PM 29.1 °F 16.4 °F 24.8 °F 84% 29.93 in 10.0 mi WNW 19.6 mph 26.5 mph N/A   Overcast